Location: N�rnberg
(49.4471°N, 11.0632°E)
Time: 15:30:10
(UTC+01:00)

ARIANE 6 FM1 Upper Stage - Pass Details

Date: 10 February 2026
Orbit: 523 x 607 km, 62.0° (Epoch: 7 March)

Event Time Altitude Azimuth Distance (km) Brightness Sun altitude
Rises 18:36:32 0° 313° (NW) 2,669 6.7 -11.8°
Reaches altitude 10° 18:39:26 10° 335° (NNW) 1,772 5.4 -12.2°
Maximum altitude 18:42:00 16° 15° (NNE) 1,410 4.5 -12.7°
Enters shadow 18:43:33 14° 43° (NE) 1,551 4.5 -12.9°
